GW5989 Weather Reports


time (UTC)temp
C
wind
direction
speed
KPH
gust
KPH
rain 1hr
cm
rain 24hr
cm
rain mn
cm
humidity
%
barometer
mb
20260506081516 23 207 4.8 16.1 0.00 0.00 0.00 89 1008.3
20260506081007 23 166 1.6 6.4 0.00 0.00 0.00 89 1008.3
20260506080504 23 223 3.2 6.4 0.00 0.00 0.00 89 1008.4
20260506073512 23 117 3.2 12.9 0.00 0.00 0.00 88 1008.7
20260506073025 23 180 1.6 6.4 0.00 0.00 0.00 88 1008.7
20260506072512 23 168 1.6 9.7 0.00 0.00 0.00 88 1008.8
20260506072008 23 169 3.2 11.3 0.00 0.00 0.00 88 1008.7
20260506071530 23 195 3.2 12.9 0.00 0.00 0.00 88 1008.8
20260506071004 23 132 3.2 12.9 0.00 0.00 0.00 88 1008.8
20260506070504 23 150 3.2 14.5 0.00 0.00 0.00 88 1008.8
20260506062009 23 183 3.2 9.7 0.00 0.00 0.00 88 1009.0
20260506061533 23 191 3.2 9.7 0.00 0.00 0.00 88 1008.9
20260506061010 23 116 3.2 9.7 0.00 0.00 0.00 88 1008.8
20260506060506 23 215 3.2 11.3 0.00 0.00 0.00 88 1008.8
20260506051005 23 159 0.0 4.8 0.00 0.00 0.00 88 1009.0
20260506050506 23 148 1.6 6.4 0.00 0.00 0.00 88 1009.0
20260506045003 23 161 1.6 4.8 0.00 0.00 0.00 87 1009.0
20260506044524 23 148 1.6 8.0 0.00 0.00 0.00 87 1008.9
20260506044005 24 154 1.6 9.7 0.00 0.00 0.00 87 1009.0
20260506043508 24 163 1.6 12.9 0.00 0.00 0.00 87 1008.9
20260506043008 24 140 3.2 14.5 0.00 0.00 0.00 86 1008.8
20260506042507 24 93 3.2 19.3 0.00 0.00 0.00 86 1008.9
20260506042004 24 89 3.2 19.3 0.00 0.00 0.00 86 1008.9
20260506041508 24 107 3.2 16.1 0.00 0.00 0.00 86 1008.8
20260506041006 24 96 4.8 16.1 0.00 0.00 0.00 86 1008.8
20260506040504 24 128 8.0 16.1 0.00 0.00 0.00 86 1008.7
20260506040033 24 113 4.8 11.3 0.00 0.00 0.00 86 1008.6
20260506035504 24 127 4.8 16.1 0.00 0.00 0.00 86 1008.6
20260506035005 24 164 4.8 16.1 0.00 0.00 0.00 86 1008.5
20260506034513 24 165 3.2 14.5 0.00 0.00 0.00 85 1008.4
20260506034005 24 258 6.4 12.9 0.00 0.00 0.00 85 1008.4
20260506033505 24 136 6.4 9.7 0.00 0.00 0.00 85 1008.3
20260506033019 24 130 4.8 14.5 0.00 0.00 0.00 85 1008.3
20260506032505 24 99 1.6 14.5 0.00 0.00 0.00 84 1008.2
20260506032001 25 126 6.4 14.5 0.00 0.00 0.00 84 1008.2
20260506031514 25 141 6.4 14.5 0.00 0.00 0.00 84 1008.0
20260506031006 25 122 6.4 14.5 0.00 0.00 0.00 84 1007.9
20260506030503 25 130 9.7 14.5 0.00 0.00 0.00 84 1007.8
20260506030009 25 144 8.0 16.1 0.00 0.00 0.00 83 1007.7
20260506025504 25 124 6.4 16.1 0.00 0.00 0.00 83 1007.7
20260506025004 25 148 6.4 14.5 0.00 0.00 0.00 83 1007.6
20260506024520 25 154 6.4 16.1 0.00 0.00 0.00 83 1007.5
20260506024005 25 139 6.4 16.1 0.00 0.00 0.00 82 1007.3
20260506023505 25 215 11.3 16.1 0.00 0.00 0.00 82 1007.3
20260506023019 25 134 9.7 17.7 0.00 0.00 0.00 82 1007.3
20260506022506 25 146 8.0 19.3 0.00 0.00 0.00 82 1007.1
20260506022005 25 130 9.7 19.3 0.00 0.00 0.00 82 1007.1
20260506021522 25 137 8.0 16.1 0.00 0.00 0.00 82 1007.0
20260506021009 25 118 8.0 12.9 0.00 0.00 0.00 81 1007.0
20260506020508 25 153 3.2 9.7 0.00 0.00 0.00 81 1007.0
20260506020008 25 121 1.6 8.0 0.00 0.00 0.00 81 1006.8
20260506015504 25 130 3.2 8.0 0.00 0.00 0.00 80 1006.7
20260506015004 25 119 1.6 8.0 0.00 0.00 0.00 80 1006.7
20260506014514 25 55 3.2 9.7 0.00 0.00 0.00 79 1006.7
20260506014004 26 137 3.2 8.0 0.00 0.00 0.00 79 1006.7
20260506013507 26 117 3.2 6.4 0.00 0.00 0.00 78 1006.8
20260506013014 26 125 3.2 4.8 0.00 0.00 0.00 78 1006.8
20260506012505 26 101 1.6 4.8 0.00 0.00 0.00 77 1006.7
20260506012009 26 107 1.6 3.2 0.00 0.00 0.00 77 1006.7
20260506011523 26 156 1.6 4.8 0.00 0.00 0.00 76 1006.8
20260506011005 26 152 1.6 6.4 0.00 0.00 0.00 76 1006.8
20260506010510 27 136 1.6 6.4 0.00 0.00 0.00 75 1006.8
20260506010022 27 132 3.2 8.0 0.00 0.00 0.00 75 1006.7
20260506005504 27 130 4.8 9.7 0.00 0.00 0.00 74 1006.7
20260506005006 27 147 6.4 9.7 0.00 0.00 0.00 74 1006.6
20260506004520 27 117 4.8 8.0 0.00 0.00 0.00 73 1006.6
20260506004006 27 133 1.6 6.4 0.00 0.00 0.00 73 1006.5
20260506003507 27 119 3.2 6.4 0.00 0.00 0.00 72 1006.4
20260506003016 28 98 3.2 11.3 0.00 0.00 0.00 71 1006.4
20260506002504 28 246 3.2 14.5 0.00 0.00 0.00 71 1006.5
20260506002005 28 144 4.8 14.5 0.00 0.00 0.00 70 1006.2
20260506001520 28 185 1.6 8.0 0.00 0.00 0.00 70 1006.5
20260506001011 28 205 1.6 11.3 0.00 0.00 0.00 70 1006.5
20260506000511 28 148 1.6 11.3 0.00 0.00 0.00 70 1006.4
20260506000023 28 297 0.0 14.5 0.00 0.00 0.00 71 1006.3
20260505235508 28 132 3.2 14.5 0.00 0.00 0.00 71 1006.1
20260505235007 28 114 6.4 12.9 0.00 0.00 0.00 70 1006.1
20260505234509 28 142 4.8 12.9 0.00 0.00 0.00 70 1006.1
20260505234005 28 160 1.6 12.9 0.00 0.00 0.00 70 1006.3
20260505233505 28 120 6.4 11.3 0.00 0.00 0.00 71 1006.3
20260505233017 28 178 4.8 14.5 0.00 0.00 0.00 70 1006.2
20260505232507 28 92 9.7 14.5 0.00 0.00 0.00 69 1006.2
20260505232005 28 142 3.2 12.9 0.00 0.00 0.00 69 1006.3
20260505231528 28 170 4.8 11.3 0.00 0.00 0.00 68 1006.2
20260505231004 28 78 4.8 11.3 0.00 0.00 0.00 68 1006.1
20260505230506 28 178 1.6 12.9 0.00 0.00 0.00 69 1006.0
20260505230028 28 219 3.2 17.7 0.00 0.00 0.00 69 1006.0
20260505225509 28 142 6.4 17.7 0.00 0.00 0.00 68 1006.0
20260505225011 28 296 4.8 14.5 0.00 0.00 0.00 67 1005.9
20260505224524 29 115 4.8 14.5 0.00 0.00 0.00 66 1006.0
20260505224007 29 222 4.8 11.3 0.00 0.00 0.00 67 1006.0
20260505223507 28 167 6.4 16.1 0.00 0.00 0.00 67 1006.0
20260505223014 28 191 4.8 17.7 0.00 0.00 0.00 68 1006.3
20260505222506 28 190 8.0 17.7 0.00 0.00 0.00 67 1006.0
20260505222006 28 146 6.4 16.1 0.00 0.00 0.00 68 1006.1
20260505221516 28 111 8.0 16.1 0.00 0.00 0.00 67 1006.1
20260505221006 29 146 4.8 17.7 0.00 0.00 0.00 67 1006.2
20260505220504 28 280 4.8 17.7 0.00 0.00 0.00 68 1006.2
20260505220019 28 260 9.7 16.1 0.00 0.00 0.00 67 1006.2
20260505215505 29 126 6.4 11.3 0.00 0.00 0.00 65 1006.2
20260505215009 29 213 4.8 14.5 0.00 0.00 0.00 66 1006.4
20260505214525 29 99 4.8 16.1 0.00 0.00 0.00 65 1006.5
20260505214009 29 185 6.4 16.1 0.00 0.00 0.00 66 1006.5
20260505213509 29 128 4.8 12.9 0.00 0.00 0.00 66 1006.5
20260505213026 29 154 4.8 12.9 0.00 0.00 0.00 66 1006.7
20260505212508 29 168 1.6 14.5 0.00 0.00 0.00 66 1006.6
20260505212004 28 202 4.8 14.5 0.00 0.00 0.00 66 1006.6
20260505211516 29 250 4.8 14.5 0.00 0.00 0.00 66 1006.7
20260505211005 29 121 3.2 12.9 0.00 0.00 0.00 67 1006.8
20260505210511 29 218 4.8 16.1 0.00 0.00 0.00 67 1006.8
20260505210006 28 144 4.8 16.1 0.00 0.00 0.00 67 1006.8
20260505205500 28 93 4.8 14.5 0.00 0.00 0.00 68 1006.9
20260505205004 28 202 4.8 14.5 0.00 0.00 0.00 67 1006.9
20260505204505 28 11 4.8 14.5 0.00 0.00 0.00 67 1007.1
20260505204001 28 148 4.8 12.9 0.00 0.00 0.00 66 1007.2
20260505203501 28 181 3.2 12.9 0.00 0.00 0.00 68 1007.4
20260505203007 28 220 6.4 17.7 0.00 0.00 0.00 67 1007.4
20260505202504 28 219 6.4 17.7 0.00 0.00 0.00 68 1007.5
20260505202002 28 216 8.0 12.9 0.00 0.00 0.00 67 1007.5
20260505201507 28 154 8.0 12.9 0.00 0.00 0.00 66 1007.5
20260505201006 28 258 6.4 12.9 0.00 0.00 0.00 67 1007.6
20260505200509 28 248 3.2 14.5 0.00 0.00 0.00 68 1007.6
20260505200015 28 233 6.4 14.5 0.00 0.00 0.00 70 1007.6
20260505195507 27 188 3.2 16.1 0.00 0.00 0.00 71 1007.7
20260505195004 27 210 4.8 16.1 0.00 0.00 0.00 71 1007.8
20260505194507 27 192 4.8 16.1 0.00 0.00 0.00 71 1007.9
20260505194004 27 167 6.4 14.5 0.00 0.00 0.00 71 1008.0
20260505193501 27 271 8.0 16.1 0.00 0.00 0.00 71 1008.0
20260505193004 27 262 6.4 16.1 0.00 0.00 0.00 71 1008.0
20260505192501 27 106 4.8 16.1 0.00 0.00 0.00 72 1008.2
20260505192001 27 180 6.4 16.1 0.00 0.00 0.00 71 1008.3
20260505191511 27 264 3.2 16.1 0.00 0.00 0.00 73 1008.2
20260505190504 27 183 8.0 17.7 0.00 0.00 0.00 71 1008.4
20260505190006 27 109 4.8 16.1 0.00 0.00 0.00 74 1008.5
20260505185504 26 291 3.2 19.3 0.00 0.00 0.00 74 1008.5
20260505184506 26 192 4.8 14.5 0.00 0.00 0.00 75 1008.7
20260505183504 26 213 3.2 14.5 0.00 0.00 0.00 76 1008.8
20260505182503 26 211 3.2 12.9 0.00 0.00 0.00 76 1008.8
20260505182002 25 170 4.8 12.9 0.00 0.00 0.00 77 1008.8
20260505181508 25 209 3.2 14.5 0.00 0.00 0.00 78 1008.9
20260505181003 25 195 8.0 14.5 0.00 0.00 0.00 78 1009.0
20260505180503 25 142 4.8 12.9 0.00 0.00 0.00 79 1009.1
20260505180010 25 165 3.2 12.9 0.00 0.00 0.00 79 1009.1
20260505175504 25 222 4.8 12.9 0.00 0.00 0.00 78 1009.2
20260505175004 25 209 1.6 16.1 0.00 0.00 0.00 79 1009.1
20260505174507 25 183 3.2 16.1 0.00 0.00 0.00 80 1009.2
20260505172504 24 232 6.4 17.7 0.00 0.00 0.00 81 1009.4
20260505171518 24 213 4.8 12.9 0.00 0.00 0.00 81 1009.4
20260505171003 23 321 3.2 12.9 0.00 0.00 0.00 81 1009.5
20260505170505 23 195 4.8 12.9 0.00 0.00 0.00 81 1009.5
20260505170014 23 192 4.8 12.9 0.00 0.00 0.00 82 1009.5
20260505165503 23 195 6.4 16.1 0.00 0.00 0.00 82 1009.5
20260505165006 23 207 3.2 12.9 0.00 0.00 0.00 82 1009.5
20260505164509 23 68 6.4 19.3 0.00 0.00 0.00 82 1009.5
20260505164004 23 218 6.4 19.3 0.00 0.00 0.00 82 1009.4
20260505163504 23 213 3.2 12.9 0.00 0.00 0.00 83 1009.4
20260505163010 23 221 4.8 11.3 0.00 0.00 0.00 83 1009.4
20260505162505 23 225 3.2 11.3 0.00 0.00 0.00 83 1009.6
20260505161512 23 165 3.2 16.1 0.00 0.00 0.00 84 1009.6
20260505161006 22 212 4.8 16.1 0.00 0.00 0.00 85 1009.6
20260505160507 22 148 4.8 12.9 0.00 0.00 0.00 85 1009.6
20260505153010 22 200 4.8 12.9 0.00 0.00 0.00 87 1009.6
20260505152505 22 229 4.8 14.5 0.00 0.00 0.00 87 1009.6
20260505152008 22 171 4.8 14.5 0.00 0.00 0.00 87 1009.4
20260505151516 22 142 6.4 14.5 0.00 0.00 0.00 88 1009.4
20260505150505 22 217 3.2 14.5 0.00 0.00 0.00 88 1009.3
20260505140507 21 197 4.8 12.9 0.00 0.00 0.00 89 1009.1
20260505124005 21 177 3.2 14.5 0.00 0.00 0.00 89 1008.2
20260505123505 21 151 4.8 14.5 0.00 0.00 0.00 89 1008.2
20260505122506 21 157 4.8 12.9 0.00 0.00 0.00 89 1008.1
20260505122011 21 5 4.8 16.1 0.00 0.00 0.00 89 1008.2
20260505121518 21 182 4.8 16.1 0.00 0.00 0.00 89 1008.1
20260505121009 21 198 6.4 16.1 0.00 0.00 0.00 89 1008.1
20260505120508 21 198 4.8 16.1 0.00 0.00 0.00 89 1008.0
20260505120004 21 360 3.2 17.7 0.00 0.00 0.00 89 1007.9
20260505115504 21 251 6.4 17.7 0.00 0.00 0.00 89 1007.9
20260505115003 21 202 4.8 16.1 0.00 0.00 0.00 89 1007.7
20260505114506 21 68 4.8 14.5 0.00 0.00 0.00 89 1007.6
20260505114004 21 203 4.8 19.3 0.00 0.00 0.00 89 1007.8
20260505113504 21 138 3.2 19.3 0.00 0.00 0.00 88 1007.9
20260505113013 21 213 3.2 14.5 0.00 0.00 0.00 88 1008.0
20260505112509 21 247 3.2 14.5 0.00 0.00 0.00 88 1007.9
20260505112006 21 171 4.8 14.5 0.00 0.00 0.00 87 1007.9
20260505111522 21 177 3.2 14.5 0.00 0.00 0.00 87 1007.8
20260505111006 21 209 6.4 16.1 0.00 0.00 0.00 87 1007.9
20260505110507 21 174 8.0 19.3 0.00 0.00 0.00 87 1008.0
20260505102004 21 160 6.4 14.5 0.00 0.00 0.00 87 1008.0
20260505101516 21 135 3.2 11.3 0.00 0.00 0.00 87 1008.0
20260505101007 21 169 6.4 14.5 0.00 0.00 0.00 87 1008.4
20260505100506 20 223 4.8 14.5 0.00 0.00 0.00 87 1008.3
20260505100023 20 226 4.8 17.7 0.00 0.00 0.00 87 1008.0
20260505095507 20 140 6.4 19.3 0.00 0.00 0.00 87 1007.9
20260505095006 20 119 6.4 14.5 0.00 0.00 0.00 87 1008.1
20260505094521 20 217 4.8 12.9 0.00 0.00 0.00 87 1008.1
20260505094003 20 219 3.2 12.9 0.00 0.00 0.00 87 1008.1
20260505093503 20 121 4.8 14.5 0.00 0.00 0.00 87 1008.2
20260505093004 20 212 3.2 16.1 0.00 0.00 0.00 87 1008.3
20260505092502 20 188 6.4 14.5 0.00 0.00 0.00 87 1008.0
20260505092004 20 69 4.8 20.9 0.00 0.00 0.00 87 1008.0
20260505091508 20 182 8.0 20.9 0.00 0.00 0.00 87 1008.2
20260505091004 20 154 4.8 14.5 0.00 0.00 0.00 87 1008.2
20260505090503 21 258 3.2 11.3 0.00 0.00 0.00 87 1008.2
20260505090015 21 213 4.8 19.3 0.00 0.00 0.00 87 1008.2
20260505085504 21 134 4.8 19.3 0.00 0.00 0.00 86 1008.4
20260505085007 21 225 6.4 17.7 0.00 0.00 0.00 86 1008.3
20260505084520 21 146 4.8 14.5 0.00 0.00 0.00 86 1008.2
20260505084010 21 205 6.4 14.5 0.00 0.00 0.00 86 1008.2
20260505083507 21 185 3.2 19.3 0.00 0.00 0.00 86 1008.4
20260505082504 21 204 4.8 17.7 0.00 0.00 0.00 86 1008.8
20260505082004 21 261 4.8 16.1 0.00 0.00 0.00 86 1008.8